UAL2340 KSFO-KSEA

Flight info

Callsign UAL2340
Flight time 1h 33m
Altitude 38000
Route TRUKN2 DEDHD RBL LMT HAWKZ8
Aircraft B38M/M-SDE1FGHILORVWXY/HB1

Departure

Time 2026-05-04 01:23
Airport San Francisco International Airport (KSFO)

Arrival

Time 2026-05-04 02:56
Airport Seattle–Tacoma International Airport (KSEA)
Time Latitude Longitude Altitude Speed Heading
2026-05-04 00:24 37.61243 -122.38579 24 ft 0 kts 118°
2026-05-04 01:07 37.61246 -122.38584 24 ft 2 kts 118°
2026-05-04 01:08 37.61253 -122.38602 22 ft 2 kts 118°
2026-05-04 01:08 37.61261 -122.38620 22 ft 2 kts 118°
2026-05-04 01:08 37.61268 -122.38637 30 ft 2 kts 126°
2026-05-04 01:08 37.61278 -122.38652 28 ft 2 kts 137°
2026-05-04 01:09 37.61290 -122.38664 27 ft 1 kts 167°
2026-05-04 01:09 37.61288 -122.38665 28 ft 1 kts 181°
2026-05-04 01:09 37.61281 -122.38666 27 ft 1 kts 195°
2026-05-04 01:09 37.61280 -122.38666 26 ft 0 kts 183°
2026-05-04 01:13 37.61265 -122.38675 25 ft 6 kts 204°
2026-05-04 01:13 37.61221 -122.38702 24 ft 7 kts 208°
2026-05-04 01:13 37.61170 -122.38738 24 ft 9 kts 208°
2026-05-04 01:14 37.61107 -122.38780 26 ft 11 kts 207°
2026-05-04 01:14 37.61030 -122.38825 24 ft 13 kts 192°
2026-05-04 01:14 37.60969 -122.38765 26 ft 14 kts 119°
2026-05-04 01:14 37.60923 -122.38657 24 ft 15 kts 118°
2026-05-04 01:15 37.60885 -122.38541 24 ft 12 kts 98°
2026-05-04 01:15 37.60866 -122.38439 26 ft 13 kts 114°
2026-05-04 01:15 37.60825 -122.38333 25 ft 15 kts 117°
2026-05-04 01:15 37.60781 -122.38230 24 ft 13 kts 124°
2026-05-04 01:16 37.60707 -122.38194 26 ft 12 kts 164°
2026-05-04 01:16 37.60655 -122.38118 24 ft 11 kts 117°
2026-05-04 01:16 37.60618 -122.38027 24 ft 13 kts 117°
2026-05-04 01:16 37.60623 -122.37920 25 ft 13 kts 45°
2026-05-04 01:17 37.60708 -122.37860 26 ft 13 kts 27°
2026-05-04 01:17 37.60748 -122.37834 26 ft 14 kts 27°
2026-05-04 01:17 37.60808 -122.37794 27 ft 15 kts 28°
2026-05-04 01:18 37.60907 -122.37727 27 ft 17 kts 28°
2026-05-04 01:18 37.61021 -122.37653 24 ft 19 kts 28°
2026-05-04 01:18 37.61101 -122.37600 26 ft 20 kts 27°
2026-05-04 01:18 37.61277 -122.37485 24 ft 23 kts 27°
2026-05-04 01:19 37.61423 -122.37389 24 ft 25 kts 27°
2026-05-04 01:19 37.61544 -122.37273 25 ft 22 kts 60°
2026-05-04 01:19 37.61544 -122.37091 27 ft 22 kts 114°
2026-05-04 01:19 37.61473 -122.36930 26 ft 21 kts 129°
2026-05-04 01:20 37.61370 -122.36784 25 ft 23 kts 124°
2026-05-04 01:20 37.61320 -122.36673 26 ft 21 kts 118°
2026-05-04 01:20 37.61251 -122.36507 24 ft 20 kts 118°
2026-05-04 01:20 37.61189 -122.36360 24 ft 19 kts 118°
2026-05-04 01:21 37.61122 -122.36203 25 ft 21 kts 118°
2026-05-04 01:21 37.61058 -122.36051 27 ft 17 kts 110°
2026-05-04 01:21 37.61068 -122.35935 26 ft 12 kts 52°
2026-05-04 01:21 37.61143 -122.35876 27 ft 14 kts 27°
2026-05-04 01:22 37.61198 -122.35889 24 ft 4 kts 291°
2026-05-04 01:22 37.61214 -122.35936 26 ft 10 kts 296°
2026-05-04 01:22 37.61378 -122.36334 28 ft 95 kts 298°
2026-05-04 01:22 37.61811 -122.37357 52 ft 164 kts 295°
2026-05-04 01:23 37.62456 -122.38673 733 ft 187 kts 297°
2026-05-04 01:23 37.63331 -122.40048 1562 ft 217 kts 322°
2026-05-04 01:23 37.64822 -122.40654 2491 ft 242 kts 359°
2026-05-04 01:23 37.66490 -122.39981 3227 ft 268 kts 33°
2026-05-04 01:24 37.67776 -122.38167 3921 ft 291 kts 64°
2026-05-04 01:24 37.68352 -122.35695 4926 ft 288 kts 82°
2026-05-04 01:24 37.68703 -122.33286 5817 ft 276 kts 80°
2026-05-04 01:24 37.68864 -122.32470 6075 ft 276 kts 79°
2026-05-04 01:25 37.69233 -122.30775 6579 ft 274 kts 78°
2026-05-04 01:25 37.69799 -122.28468 7182 ft 276 kts 75°
2026-05-04 01:25 37.70422 -122.26162 7799 ft 278 kts 74°
2026-05-04 01:26 37.71154 -122.23851 8435 ft 283 kts 63°
2026-05-04 01:26 37.72467 -122.22025 8979 ft 291 kts 37°
2026-05-04 01:26 37.74352 -122.21055 9563 ft 298 kts 11°
2026-05-04 01:26 37.76417 -122.20716 10237 ft 302 kts 10°
2026-05-04 01:27 37.78558 -122.20357 10765 ft 320 kts 11°
2026-05-04 01:27 37.80818 -122.19981 11353 ft 334 kts 10°
2026-05-04 01:27 37.83165 -122.19594 12124 ft 340 kts
2026-05-04 01:27 37.85490 -122.19212 13021 ft 343 kts 10°
2026-05-04 01:28 37.87877 -122.18820 13860 ft 348 kts
2026-05-04 01:28 37.90280 -122.18427 14608 ft 351 kts 10°
2026-05-04 01:28 37.92732 -122.18023 15285 ft 357 kts 10°
2026-05-04 01:28 37.95204 -122.17617 16003 ft 361 kts
2026-05-04 01:29 37.97707 -122.17205 16727 ft 365 kts
2026-05-04 01:29 38.00237 -122.16789 17418 ft 369 kts
2026-05-04 01:29 38.02797 -122.16367 18119 ft 373 kts
2026-05-04 01:29 38.05381 -122.15941 18742 ft 376 kts 10°
2026-05-04 01:30 38.07970 -122.15515 19344 ft 379 kts 10°
2026-05-04 01:30 38.10593 -122.15081 19952 ft 381 kts 11°
2026-05-04 01:30 38.13230 -122.14646 20539 ft 384 kts 11°
2026-05-04 01:30 38.15887 -122.14206 21124 ft 387 kts 11°
2026-05-04 01:31 38.18563 -122.13764 21710 ft 389 kts 11°
2026-05-04 01:31 38.21259 -122.13318 22281 ft 392 kts 12°
2026-05-04 01:31 38.23978 -122.12867 22850 ft 395 kts 12°
2026-05-04 01:31 38.26712 -122.12414 23420 ft 398 kts 12°
2026-05-04 01:32 38.29469 -122.11957 23871 ft 400 kts 12°
2026-05-04 01:32 38.32225 -122.11500 24357 ft 402 kts 13°
2026-05-04 01:32 38.35036 -122.11363 24898 ft 408 kts
2026-05-04 01:32 38.37870 -122.11581 25406 ft 409 kts
2026-05-04 01:33 38.40722 -122.11772 25819 ft 411 kts
2026-05-04 01:33 38.43577 -122.11967 26291 ft 412 kts
2026-05-04 01:33 38.46453 -122.12163 26734 ft 414 kts
2026-05-04 01:33 38.49334 -122.12361 27179 ft 417 kts
2026-05-04 01:34 38.52195 -122.12557 27655 ft 418 kts
2026-05-04 01:34 38.55107 -122.12758 28066 ft 419 kts
2026-05-04 01:34 38.58000 -122.12957 28495 ft 419 kts
2026-05-04 01:34 38.60918 -122.13157 28877 ft 422 kts
2026-05-04 01:35 38.63871 -122.13360 29177 ft 426 kts
2026-05-04 01:35 38.66882 -122.13569 29586 ft 428 kts
2026-05-04 01:35 38.69828 -122.13771 29882 ft 431 kts
2026-05-04 01:35 38.72825 -122.13979 30234 ft 432 kts
2026-05-04 01:36 38.75835 -122.14187 30490 ft 435 kts
2026-05-04 01:36 38.78866 -122.14397 30754 ft 438 kts
2026-05-04 01:36 38.81902 -122.14607 31026 ft 440 kts
2026-05-04 01:36 38.84968 -122.14820 31312 ft 443 kts
2026-05-04 01:37 38.88047 -122.15034 31558 ft 446 kts
2026-05-04 01:37 38.91161 -122.15250 31820 ft 448 kts
2026-05-04 01:37 38.94274 -122.15465 32205 ft 447 kts
2026-05-04 01:37 38.97386 -122.15681 32486 ft 450 kts
2026-05-04 01:38 39.00526 -122.15900 32737 ft 452 kts
2026-05-04 01:38 39.03669 -122.16119 33099 ft 452 kts
2026-05-04 01:38 39.06799 -122.16337 33463 ft 452 kts
2026-05-04 01:38 39.09938 -122.16556 33809 ft 452 kts
2026-05-04 01:39 39.13076 -122.16776 34113 ft 452 kts
2026-05-04 01:39 39.16218 -122.16997 34385 ft 452 kts
2026-05-04 01:39 39.19373 -122.17218 34645 ft 453 kts
2026-05-04 01:39 39.22526 -122.17438 34894 ft 454 kts
2026-05-04 01:40 39.25683 -122.17660 35146 ft 455 kts
2026-05-04 01:40 39.28839 -122.17881 35387 ft 455 kts
2026-05-04 01:40 39.31990 -122.18102 35639 ft 455 kts 360°
2026-05-04 01:40 39.35160 -122.18325 35904 ft 456 kts 359°
2026-05-04 01:41 39.38321 -122.18547 36126 ft 456 kts 359°
2026-05-04 01:41 39.41493 -122.18771 36365 ft 457 kts 359°
2026-05-04 01:41 39.44668 -122.18994 36591 ft 457 kts 359°
2026-05-04 01:41 39.47847 -122.19217 36796 ft 458 kts 359°
2026-05-04 01:42 39.51019 -122.19441 37130 ft 455 kts 358°
2026-05-04 01:42 39.54177 -122.19663 37415 ft 454 kts 359°
2026-05-04 01:42 39.57323 -122.19885 37604 ft 455 kts 358°
2026-05-04 01:42 39.60481 -122.20110 37805 ft 455 kts 358°
2026-05-04 01:43 39.63642 -122.20334 37945 ft 455 kts 357°
2026-05-04 01:43 39.69966 -122.20783 37937 ft 453 kts 357°
2026-05-04 01:44 39.76252 -122.21230 37946 ft 452 kts 358°
2026-05-04 01:44 39.82523 -122.21677 37950 ft 453 kts 358°
2026-05-04 01:45 39.88803 -122.22125 37967 ft 450 kts 359°
2026-05-04 01:45 39.98128 -122.22791 37950 ft 448 kts 358°
2026-05-04 01:46 40.04356 -122.23236 37951 ft 448 kts 358°
2026-05-04 01:46 40.10554 -122.23400 37950 ft 444 kts 11°
2026-05-04 01:47 40.16632 -122.21969 37943 ft 445 kts 11°
2026-05-04 01:47 40.22725 -122.20540 37971 ft 445 kts 11°
2026-05-04 01:48 40.28817 -122.19079 37980 ft 447 kts 13°
2026-05-04 01:48 40.34888 -122.17612 37950 ft 447 kts 13°
2026-05-04 01:49 40.41024 -122.16128 37958 ft 450 kts 12°
2026-05-04 01:49 40.47194 -122.14632 37961 ft 451 kts 12°
2026-05-04 01:50 40.53364 -122.13134 37942 ft 451 kts 12°
2026-05-04 01:50 40.59532 -122.11633 37950 ft 451 kts 12°
2026-05-04 01:51 40.65704 -122.10128 37937 ft 451 kts 13°
2026-05-04 01:51 40.71865 -122.08623 37927 ft 450 kts 13°
2026-05-04 01:52 40.78028 -122.07114 37914 ft 450 kts 12°
2026-05-04 01:52 40.84177 -122.05607 37912 ft 450 kts 12°
2026-05-04 01:53 40.90326 -122.04096 37911 ft 449 kts 13°
2026-05-04 01:53 40.96442 -122.02591 37907 ft 447 kts 12°
2026-05-04 01:54 41.02564 -122.01081 37905 ft 447 kts 12°
2026-05-04 01:54 41.08666 -121.99573 37902 ft 446 kts 13°
2026-05-04 01:55 41.14759 -121.98065 37890 ft 445 kts 13°
2026-05-04 01:55 41.20856 -121.96553 37900 ft 446 kts 12°
2026-05-04 01:56 41.26960 -121.95036 37905 ft 446 kts 12°
2026-05-04 01:56 41.33000 -121.93532 37905 ft 445 kts 12°
2026-05-04 01:57 41.39082 -121.92016 37900 ft 445 kts 13°
2026-05-04 01:57 41.45158 -121.90497 37911 ft 444 kts 13°
2026-05-04 01:58 41.51232 -121.88976 37910 ft 444 kts 12°
2026-05-04 01:58 41.57281 -121.87459 37917 ft 443 kts 12°
2026-05-04 01:59 41.63347 -121.85934 37916 ft 443 kts 12°
2026-05-04 01:59 41.69402 -121.84410 37922 ft 443 kts 12°
2026-05-04 02:00 41.75434 -121.82889 37915 ft 438 kts 12°
2026-05-04 02:00 41.81414 -121.81377 37915 ft 438 kts 12°
2026-05-04 02:01 41.87411 -121.79857 37926 ft 439 kts 12°
2026-05-04 02:01 41.93408 -121.78336 37929 ft 438 kts 12°
2026-05-04 02:02 41.99383 -121.76818 37942 ft 436 kts 12°
2026-05-04 02:02 42.04318 -121.75562 37956 ft 436 kts 12°
2026-05-04 02:03 42.10268 -121.74045 37962 ft 436 kts 12°
2026-05-04 02:03 42.16278 -121.73155 37935 ft 436 kts 354°
2026-05-04 02:04 42.22293 -121.74390 37870 ft 439 kts 353°
2026-05-04 02:04 42.28299 -121.75702 37912 ft 438 kts 352°
2026-05-04 02:05 42.34307 -121.77061 37898 ft 437 kts 352°
2026-05-04 02:05 42.40295 -121.78426 37899 ft 437 kts 352°
2026-05-04 02:06 42.46293 -121.79794 37898 ft 437 kts 352°
2026-05-04 02:06 42.52287 -121.81165 37898 ft 437 kts 352°
2026-05-04 02:07 42.58269 -121.82535 37905 ft 437 kts 353°
2026-05-04 02:07 42.64259 -121.83910 37896 ft 437 kts 352°
2026-05-04 02:08 42.70261 -121.85290 37897 ft 438 kts 352°
2026-05-04 02:08 42.76276 -121.86677 37901 ft 439 kts 352°
2026-05-04 02:09 42.82288 -121.88065 37893 ft 439 kts 352°
2026-05-04 02:09 42.88311 -121.89459 37897 ft 439 kts 352°
2026-05-04 02:10 42.94337 -121.90856 37887 ft 439 kts 352°
2026-05-04 02:10 43.00364 -121.92255 37898 ft 440 kts 352°
2026-05-04 02:11 43.06385 -121.93657 37904 ft 440 kts 352°
2026-05-04 02:11 43.12415 -121.95063 37895 ft 440 kts 352°
2026-05-04 02:12 43.18433 -121.96470 37912 ft 441 kts 352°
2026-05-04 02:12 43.24478 -121.97884 37911 ft 440 kts 352°
2026-05-04 02:13 43.30486 -121.99293 37894 ft 440 kts 352°
2026-05-04 02:13 43.36486 -122.00705 37908 ft 440 kts 352°
2026-05-04 02:14 43.42563 -122.02137 37907 ft 440 kts 352°
2026-05-04 02:14 43.48581 -122.03557 37900 ft 440 kts 352°
2026-05-04 02:15 43.54561 -122.04972 37903 ft 439 kts 352°
2026-05-04 02:15 43.60578 -122.06398 37895 ft 439 kts 352°
2026-05-04 02:16 43.66596 -122.07828 37907 ft 439 kts 352°
2026-05-04 02:16 43.72636 -122.09264 37881 ft 437 kts 352°
2026-05-04 02:17 43.78573 -122.10680 37892 ft 436 kts 352°
2026-05-04 02:17 43.84530 -122.12104 37884 ft 436 kts 352°
2026-05-04 02:18 43.90507 -122.13535 37851 ft 435 kts 352°
2026-05-04 02:18 43.96452 -122.14962 37887 ft 433 kts 352°
2026-05-04 02:19 44.02382 -122.16387 37897 ft 433 kts 352°
2026-05-04 02:19 44.08314 -122.17816 37875 ft 433 kts 352°
2026-05-04 02:20 44.14256 -122.19252 37862 ft 433 kts 352°
2026-05-04 02:20 44.20183 -122.20685 37877 ft 433 kts 352°
2026-05-04 02:21 44.26108 -122.22121 37875 ft 433 kts 352°
2026-05-04 02:21 44.32042 -122.23561 37885 ft 432 kts 352°
2026-05-04 02:22 44.37941 -122.24997 37892 ft 430 kts 352°
2026-05-04 02:22 44.43830 -122.26434 37871 ft 429 kts 352°
2026-05-04 02:23 44.49706 -122.27869 37872 ft 430 kts 352°
2026-05-04 02:23 44.55598 -122.29312 37881 ft 430 kts 352°
2026-05-04 02:24 44.61484 -122.30758 37873 ft 429 kts 353°
2026-05-04 02:24 44.67338 -122.32198 37863 ft 429 kts 353°
2026-05-04 02:25 44.73224 -122.33647 37854 ft 430 kts 353°
2026-05-04 02:25 44.79107 -122.35099 37857 ft 430 kts 353°
2026-05-04 02:26 44.85008 -122.36559 37871 ft 431 kts 353°
2026-05-04 02:26 44.90910 -122.38022 37854 ft 431 kts 353°
2026-05-04 02:27 44.96809 -122.39488 37843 ft 430 kts 353°
2026-05-04 02:27 45.02688 -122.40952 37860 ft 430 kts 353°
2026-05-04 02:28 45.08590 -122.42424 37834 ft 430 kts 353°
2026-05-04 02:28 45.14481 -122.43896 37810 ft 430 kts 353°
2026-05-04 02:29 45.20294 -122.45352 37813 ft 428 kts 353°
2026-05-04 02:29 45.26146 -122.46822 37817 ft 428 kts 353°
2026-05-04 02:30 45.32010 -122.48298 37807 ft 428 kts 353°
2026-05-04 02:30 45.37855 -122.49772 37390 ft 423 kts 353°
2026-05-04 02:31 45.40752 -122.50504 36762 ft 421 kts 353°
2026-05-04 02:31 45.43630 -122.51231 36226 ft 418 kts 353°
2026-05-04 02:31 45.46475 -122.51951 35766 ft 413 kts 353°
2026-05-04 02:31 45.49283 -122.52662 35297 ft 410 kts 353°
2026-05-04 02:32 45.52080 -122.53371 34832 ft 407 kts 353°
2026-05-04 02:32 45.54858 -122.54076 34360 ft 404 kts 353°
2026-05-04 02:32 45.57605 -122.54774 33887 ft 402 kts 353°
2026-05-04 02:32 45.60346 -122.55472 33355 ft 399 kts 353°
2026-05-04 02:33 45.63071 -122.56165 32846 ft 396 kts 353°
2026-05-04 02:33 45.65750 -122.56848 32395 ft 392 kts 353°
2026-05-04 02:33 45.68426 -122.57530 31969 ft 389 kts 353°
2026-05-04 02:33 45.71076 -122.58207 31521 ft 386 kts 353°
2026-05-04 02:34 45.73556 -122.58841 31112 ft 383 kts 353°
2026-05-04 02:34 45.76181 -122.59491 30626 ft 381 kts 353°
2026-05-04 02:34 45.78789 -122.60133 30178 ft 380 kts 353°
2026-05-04 02:34 45.81384 -122.60775 29760 ft 377 kts 353°
2026-05-04 02:35 45.83954 -122.61410 29286 ft 374 kts 353°
2026-05-04 02:35 45.86505 -122.62042 28881 ft 370 kts 353°
2026-05-04 02:35 45.89030 -122.62668 28473 ft 366 kts 353°
2026-05-04 02:35 45.91528 -122.63288 28088 ft 363 kts 353°
2026-05-04 02:36 45.94006 -122.63903 27702 ft 360 kts 353°
2026-05-04 02:36 45.96463 -122.64514 27311 ft 357 kts 353°
2026-05-04 02:36 45.98889 -122.65119 26937 ft 354 kts 353°
2026-05-04 02:36 46.01305 -122.65720 26570 ft 351 kts 352°
2026-05-04 02:37 46.03704 -122.66318 26199 ft 349 kts 352°
2026-05-04 02:37 46.06088 -122.66912 25836 ft 346 kts 352°
2026-05-04 02:37 46.08455 -122.67504 25489 ft 344 kts 352°
2026-05-04 02:37 46.10817 -122.67987 25084 ft 343 kts 354°
2026-05-04 02:38 46.13176 -122.68448 24718 ft 341 kts 354°
2026-05-04 02:38 46.15524 -122.68914 24389 ft 339 kts 354°
2026-05-04 02:38 46.17851 -122.69378 24047 ft 337 kts 354°
2026-05-04 02:38 46.20169 -122.69842 23709 ft 335 kts 354°
2026-05-04 02:39 46.22462 -122.70303 23342 ft 333 kts 353°
2026-05-04 02:39 46.24754 -122.70762 22954 ft 331 kts 353°
2026-05-04 02:39 46.26999 -122.71213 22609 ft 328 kts 353°
2026-05-04 02:39 46.29250 -122.71666 22268 ft 325 kts 354°
2026-05-04 02:40 46.31487 -122.72111 21936 ft 324 kts 355°
2026-05-04 02:40 46.33758 -122.72224 21538 ft 328 kts
2026-05-04 02:40 46.36083 -122.72268 21213 ft 332 kts
2026-05-04 02:40 46.38361 -122.72333 20901 ft 332 kts
2026-05-04 02:41 46.40667 -122.72412 20560 ft 331 kts 360°
2026-05-04 02:41 46.42966 -122.72497 20221 ft 329 kts 360°
2026-05-04 02:41 46.45236 -122.72585 19889 ft 327 kts 359°
2026-05-04 02:41 46.47499 -122.72674 19559 ft 325 kts 359°
2026-05-04 02:42 46.49751 -122.72763 19231 ft 323 kts 359°
2026-05-04 02:42 46.52008 -122.72853 18649 ft 329 kts 359°
2026-05-04 02:42 46.54309 -122.72944 18045 ft 332 kts 359°
2026-05-04 02:42 46.56633 -122.73036 17241 ft 337 kts 359°
2026-05-04 02:43 46.58992 -122.73129 16479 ft 340 kts 359°
2026-05-04 02:43 46.61369 -122.73224 15736 ft 344 kts 359°
2026-05-04 02:43 46.63760 -122.73319 15130 ft 343 kts 359°
2026-05-04 02:43 46.66148 -122.73414 14541 ft 343 kts 359°
2026-05-04 02:44 46.68531 -122.73509 13960 ft 342 kts 360°
2026-05-04 02:44 46.70908 -122.73604 13358 ft 341 kts 359°
2026-05-04 02:44 46.73267 -122.73699 12743 ft 343 kts 359°
2026-05-04 02:44 46.75654 -122.73794 12270 ft 343 kts 359°
2026-05-04 02:45 46.78017 -122.73507 11796 ft 341 kts 16°
2026-05-04 02:45 46.80121 -122.71955 11335 ft 341 kts 37°
2026-05-04 02:45 46.81952 -122.69763 10838 ft 341 kts 38°
2026-05-04 02:45 46.83795 -122.67588 10298 ft 339 kts 38°
2026-05-04 02:46 46.84969 -122.66067 10191 ft 328 kts 43°
2026-05-04 02:46 46.86558 -122.63872 10145 ft 310 kts 42°
2026-05-04 02:46 46.88100 -122.61758 10090 ft 299 kts 43°
2026-05-04 02:46 46.89600 -122.59712 10061 ft 290 kts 42°
2026-05-04 02:47 46.91050 -122.57682 9871 ft 288 kts 45°
2026-05-04 02:47 46.92439 -122.55581 9548 ft 287 kts 45°
2026-05-04 02:47 46.93819 -122.53500 9218 ft 286 kts 45°
2026-05-04 02:47 46.95190 -122.51440 9020 ft 281 kts 45°
2026-05-04 02:48 46.96541 -122.49413 8995 ft 277 kts 45°
2026-05-04 02:48 46.97892 -122.47395 8998 ft 277 kts 41°
2026-05-04 02:48 46.99454 -122.45785 8863 ft 274 kts 28°
2026-05-04 02:48 47.01089 -122.44432 8523 ft 274 kts 28°
2026-05-04 02:49 47.02751 -122.43040 8088 ft 278 kts 28°
2026-05-04 02:49 47.04436 -122.41622 7701 ft 281 kts 28°
2026-05-04 02:49 47.06138 -122.40184 7271 ft 284 kts 29°
2026-05-04 02:49 47.07850 -122.38736 6885 ft 286 kts 29°
2026-05-04 02:50 47.09567 -122.37283 6619 ft 282 kts 28°
2026-05-04 02:50 47.11252 -122.35853 6376 ft 278 kts 29°
2026-05-04 02:50 47.12963 -122.34639 6125 ft 272 kts 15°
2026-05-04 02:50 47.14771 -122.33970 5849 ft 268 kts 13°
2026-05-04 02:51 47.16575 -122.33302 5518 ft 268 kts 13°
2026-05-04 02:51 47.18381 -122.32620 5190 ft 268 kts 11°
2026-05-04 02:51 47.20210 -122.32228 4858 ft 264 kts
2026-05-04 02:51 47.22029 -122.32060 4525 ft 261 kts
2026-05-04 02:52 47.23825 -122.31997 4230 ft 256 kts
2026-05-04 02:52 47.25601 -122.31973 3884 ft 251 kts
2026-05-04 02:52 47.27289 -122.31955 3573 ft 235 kts
2026-05-04 02:52 47.28856 -122.31940 3311 ft 216 kts
2026-05-04 02:53 47.30307 -122.31928 3022 ft 200 kts
2026-05-04 02:53 47.31625 -122.31916 2780 ft 179 kts
2026-05-04 02:53 47.32797 -122.31905 2561 ft 161 kts
2026-05-04 02:53 47.33905 -122.31895 2355 ft 157 kts
2026-05-04 02:54 47.34997 -122.31884 2152 ft 157 kts
2026-05-04 02:54 47.36089 -122.31876 1946 ft 157 kts
2026-05-04 02:54 47.37173 -122.31866 1725 ft 157 kts 360°
2026-05-04 02:54 47.38246 -122.31858 1518 ft 157 kts
2026-05-04 02:55 47.40402 -122.31837 1113 ft 149 kts
2026-05-04 02:55 47.41417 -122.31830 933 ft 146 kts 359°
2026-05-04 02:55 47.42436 -122.31828 744 ft 143 kts 360°
2026-05-04 02:56 47.43447 -122.31823 553 ft 146 kts
2026-05-04 02:56 47.44434 -122.31807 410 ft 134 kts 360°
2026-05-04 02:56 47.45102 -122.31800 396 ft 66 kts 359°
2026-05-04 02:56 47.45373 -122.31710 396 ft 27 kts 27°
2026-05-04 02:57 47.45480 -122.31568 394 ft 17 kts 59°
2026-05-04 02:57 47.45506 -122.31417 393 ft 11 kts 88°
2026-05-04 02:57 47.45506 -122.31322 393 ft 10 kts 89°
2026-05-04 02:57 47.45506 -122.31225 394 ft 10 kts 90°
2026-05-04 02:58 47.45506 -122.31106 393 ft 14 kts 90°
2026-05-04 02:58 47.45510 -122.30952 395 ft 16 kts 74°
2026-05-04 02:58 47.45570 -122.30815 396 ft 17 kts 69°
2026-05-04 02:58 47.45568 -122.30713 392 ft 6 kts 122°
2026-05-04 02:59 47.45534 -122.30656 395 ft 8 kts 142°
2026-05-04 02:59 47.45472 -122.30623 396 ft 11 kts 172°
2026-05-04 02:59 47.45390 -122.30621 393 ft 13 kts 180°
2026-05-04 02:59 47.45289 -122.30621 393 ft 15 kts 180°
2026-05-04 03:00 47.45173 -122.30620 396 ft 18 kts 180°
2026-05-04 03:00 47.45048 -122.30622 391 ft 18 kts 181°
2026-05-04 03:00 47.44918 -122.30626 392 ft 20 kts 181°
2026-05-04 03:00 47.44785 -122.30627 396 ft 19 kts 179°
2026-05-04 03:01 47.44659 -122.30628 396 ft 19 kts 180°
2026-05-04 03:01 47.44554 -122.30629 393 ft 11 kts 181°
2026-05-04 03:01 47.44472 -122.30631 393 ft 10 kts 180°
2026-05-04 03:01 47.44400 -122.30632 394 ft 6 kts 180°
2026-05-04 03:02 47.44351 -122.30633 392 ft 8 kts 180°
2026-05-04 03:02 47.44285 -122.30633 390 ft 11 kts 180°
2026-05-04 03:02 47.44200 -122.30634 395 ft 13 kts 180°
2026-05-04 03:02 47.44099 -122.30635 393 ft 16 kts 180°
2026-05-04 03:03 47.43999 -122.30587 394 ft 17 kts 111°
2026-05-04 03:03 47.43990 -122.30434 395 ft 14 kts 90°
2026-05-04 03:03 47.44007 -122.30318 391 ft 7 kts 65°
2026-05-04 03:03 47.44035 -122.30255 391 ft 5 kts 26°
2026-05-04 03:04 47.44062 -122.30266 396 ft 5 kts 324°
2026-05-04 03:04 47.44089 -122.30307 393 ft 5 kts 311°
2026-05-04 03:04 47.44096 -122.30318 396 ft 0 kts 311°